User: anonymous   Login
Location: Darlington Observatory
(36.4817°N, 105.8156°W)
Time: 22:07:27
(UTC-07:00)
Language:

MOS 1 - Orbit

View from above orbital plane
View from above orbital plane
View from above satellite
View from above satellite

Ground track
Ground track

The orbit data is extracted from the following two-line orbital elements,

1 17527U 87018A   17053.53077501 -.00000099  00000-0 -34485-4 0  9998
2 17527  99.2723  65.8130 0007623 243.4420 227.1650 14.02477981533384
Epoch (UTC): 22 February 2017 12:44:18
Eccentricity: 0.0007623
inclination: 99.2723°
perigee height: 879 km
apogee height: 891 km
right ascension of ascending node: 65.8130°
argument of perigee: 243.4420°
revolutions per day: 14.02477981
mean anomaly at epoch: 227.1650°
orbit number at epoch: 53338

The dashed part of the orbit path shows where the satellite is in the earth's shadow,  

DLR